WZZ4KM EPWA-EBBR

Flight info

Callsign WZZ4KM
Flight time N/A
Altitude 38000
Route LOLSI DCT DIBLO DCT INDIG DCT GOVEN DCT MAG DCT TOLGI DCT ABAMI Z717 NEREL/N0356F240 T855 AGENI/N0328F180 T855 BATTY
Aircraft A20N/M-SDE2E3FGHIRWXY/LB1

Departure

Time 2026-05-05 20:05
Airport Warsaw Chopin Airport (EPWA)

Arrival

Time N/A
Airport Brussels Airport (EBBR)
Time Latitude Longitude Altitude Speed Heading
2026-05-05 19:36 52.16816 20.97313 331 ft 0 kts 74°
2026-05-05 19:55 52.16814 20.97304 336 ft 2 kts 73°
2026-05-05 19:55 52.16810 20.97278 332 ft 2 kts 76°
2026-05-05 19:56 52.16807 20.97251 334 ft 2 kts 81°
2026-05-05 19:56 52.16805 20.97225 332 ft 2 kts 86°
2026-05-05 19:56 52.16804 20.97198 332 ft 2 kts 94°
2026-05-05 19:56 52.16807 20.97171 331 ft 2 kts 109°
2026-05-05 19:57 52.16814 20.97147 333 ft 2 kts 133°
2026-05-05 19:57 52.16826 20.97132 332 ft 1 kts 152°
2026-05-05 19:57 52.16829 20.97130 333 ft 0 kts 151°
2026-05-05 19:59 52.16827 20.97131 332 ft 1 kts 151°
2026-05-05 19:59 52.16795 20.97160 334 ft 9 kts 151°
2026-05-05 19:59 52.16713 20.97234 333 ft 16 kts 151°
2026-05-05 19:59 52.16606 20.97329 336 ft 19 kts 149°
2026-05-05 20:00 52.16536 20.97509 333 ft 20 kts 114°
2026-05-05 20:00 52.16475 20.97720 336 ft 21 kts 114°
2026-05-05 20:00 52.16394 20.97792 334 ft 13 kts 198°
2026-05-05 20:00 52.16377 20.97781 335 ft 0 kts 205°
2026-05-05 20:01 52.16373 20.97778 335 ft 5 kts 204°
2026-05-05 20:01 52.16315 20.97728 335 ft 10 kts 217°
2026-05-05 20:02 52.16313 20.97650 335 ft 0 kts 293°
2026-05-05 20:04 52.16336 20.97566 334 ft 34 kts 295°
2026-05-05 20:04 52.16540 20.96840 335 ft 104 kts 294°
2026-05-05 20:04 52.16917 20.95498 339 ft 155 kts 295°
2026-05-05 20:05 52.17415 20.93787 654 ft 170 kts 294°
2026-05-05 20:05 52.17930 20.92100 1296 ft 169 kts 296°
2026-05-05 20:05 52.18439 20.90377 2004 ft 163 kts 286°
2026-05-05 20:05 52.18564 20.88603 2654 ft 157 kts 261°
2026-05-05 20:06 52.18400 20.86775 3145 ft 170 kts 257°
2026-05-05 20:06 52.18159 20.84802 3668 ft 185 kts 256°
2026-05-05 20:06 52.18040 20.82590 4191 ft 207 kts 270°
2026-05-05 20:06 52.18286 20.80151 4729 ft 231 kts 279°
2026-05-05 20:07 52.18667 20.77481 5309 ft 253 kts 280°
2026-05-05 20:07 52.19089 20.74601 5822 ft 267 kts 281°
2026-05-05 20:07 52.19464 20.71641 5965 ft 266 kts 271°
2026-05-05 20:07 52.19356 20.68709 6001 ft 262 kts 255°
2026-05-05 20:08 52.18795 20.65918 6008 ft 261 kts 248°
2026-05-05 20:08 52.18168 20.63126 6008 ft 260 kts 248°
2026-05-05 20:08 52.17551 20.60353 6009 ft 260 kts 248°
2026-05-05 20:08 52.16936 20.57581 6004 ft 260 kts 248°
2026-05-05 20:09 52.16325 20.54822 6008 ft 260 kts 248°
2026-05-05 20:09 52.15725 20.52044 6006 ft 260 kts 251°
2026-05-05 20:09 52.15390 20.49143 6010 ft 263 kts 263°
2026-05-05 20:09 52.15422 20.46165 6010 ft 265 kts 271°
2026-05-05 20:10 52.15564 20.43162 6013 ft 265 kts 271°
2026-05-05 20:10 52.15692 20.40209 6011 ft 265 kts 271°
2026-05-05 20:10 52.15815 20.37227 6010 ft 264 kts 270°
2026-05-05 20:10 52.15936 20.34247 6011 ft 264 kts 270°
2026-05-05 20:11 52.16056 20.31260 6014 ft 264 kts 270°
2026-05-05 20:11 52.16176 20.28271 6016 ft 265 kts 270°
2026-05-05 20:11 52.16294 20.25289 6012 ft 263 kts 270°
2026-05-05 20:11 52.16412 20.22322 6012 ft 264 kts 270°